{"data":{"norad_id":63257,"intl_designator":"2025-052AZ","name":"ICEYE-X51","alt_names":[],"object_type":"PAYLOAD","status":"ACTIVE","operator":null,"country":"US","launch_date":"2025-03-15","launch_site_code":"AFWTR","launch_vehicle":null,"mission":null,"orbit_class":"UNKNOWN","rcs_meters":null,"size_class":null,"mass_kg":null,"dimensions":null,"purposes":[],"wikipedia_slug":null,"has_3d_model":false,"image_url":null,"decayed_at":null,"tle_current":{"epoch":"2026-09-22T22:16:39.720000Z","epoch_age_seconds":99069,"freshness":"FRESH","line1":"1 63257U 25052AZ  26265.92823750  .00003021  00000+0  24226-3 0  9998","line2":"2 63257  97.7719 160.9275 0001856  60.5703 299.5706 15.00866415 83461","mean_motion":15.00866415,"eccentricity":0.0001856,"inclination_deg":97.7719,"raan_deg":160.9275,"arg_perigee_deg":60.5703,"mean_anomaly_deg":299.5706,"bstar":0.00024226,"rev_number":8346,"period_min":95.944581450308,"perigee_km":562.93478305818,"apogee_km":565.51178719602,"semimajor_km":6942.3602851271,"source":"CELESTRAK","updated_at":"2026-09-23T09:00:21.940450Z"}}}